Location: Dammartin
(48.9032°N, 1.6195°E)
Time: 13:33:45
(UTC+00:00)

Okean-O - Pass Details

Date: 03 February 2023
Orbit: 637 x 638 km, 98.1° (Epoch: 29 March)

Event Time Altitude Azimuth Distance (km) Brightness Sun altitude
Exits shadow 19:25:54 23° 2° (N) 1,358 4.3 -25.1°
Drops below altitude 10° 19:27:41 10° 354° (N) 2,043 5.3 -25.4°
Sets 19:29:56 0° 350° (N) 2,957 6.2 -25.8°
